QPF
0.07 0.06 0.10 0.12 0.12 0.12 0.15 0.17 0.14 0.12 0.06 0.06 0.03 0.03 0.03 0.04 0.04 0.06 0.12 0.16 0.08 0.03 0.03 0.05 0.07 0.04 0.03 0.02 0.01 0.01 0.01 0.00 0.00 0.00 0.00 0.00 0.00 0.00 0.00 0.00 0.00 0.01 0.01 0.00 0.01 0.01 0.00 0.00 0.00
0.04 0.08 0.12 0.13 0.11 0.10 0.15 0.14 0.10 0.08 0.07 0.07 0.04 0.03 0.03 0.02 0.03 0.06 0.17 0.15 0.05 0.01 0.01 0.02 0.06 0.04 0.02 0.02 0.01 0.01 0.01 0.01 0.00 0.00 0.00 0.00 0.00 0.00 0.00 0.00 0.01 0.01 0.00 0.00 0.00 0.00 0.00 0.00 0.00
0.07 0.13 0.18 0.13 0.10 0.10 0.11 0.10 0.08 0.07 0.06 0.06 0.05 0.03 0.03 0.04 0.03 0.07 0.14 0.08 0.03 0.01 0.01 0.03 0.04 0.02 0.01 0.01 0.01 0.00 0.01 0.01 0.00 0.00 0.00 0.00 0.00 0.00 0.00 0.00 0.00 0.00 0.00 0.00 0.00 0.00 0.00 0.00 0.01
0.11 0.13 0.15 0.12 0.15 0.12 0.09 0.08 0.06 0.05 0.05 0.05 0.03 0.02 0.04 0.06 0.03 0.05 0.07 0.04 0.01 0.02 0.02 0.04 0.03 0.01 0.01 0.01 0.00 0.00 0.00 0.00 0.00 0.00 0.00 0.00 0.00 0.00 0.00 0.00 0.00 0.00 0.00 0.00 0.00 0.01 0.00 0.00 0.00
0.10 0.11 0.11 0.13 0.18 0.18 0.10 0.08 0.06 0.03 0.03 0.04 0.03 0.04 0.08 0.10 0.06 0.03 0.02 0.02 0.02 0.02 0.03 0.03 0.05 0.02 0.01 0.00 0.00 0.00 0.00 0.00 0.00 0.00 0.00 0.00 0.00 0.00 0.00 0.00 0.00 0.00 0.00 0.00 0.01 0.01 0.00 0.00 0.00
0.11 0.10 0.12 0.14 0.18 0.19 0.11 0.07 0.05 0.03 0.02 0.03 0.03 0.05 0.12 0.14 0.10 0.07 0.03 0.02 0.01 0.01 0.02 0.02 0.02 0.01 0.01 0.01 0.01 0.01 0.01 0.01 0.01 0.00 0.00 0.00 0.00 0.00 0.00 0.00 0.00 0.00 0.00 0.01 0.00 0.00 0.01 0.00 0.00
0.13 0.12 0.14 0.15 0.16 0.20 0.12 0.06 0.08 0.07 0.05 0.03 0.02 0.04 0.11 0.12 0.07 0.04 0.01 0.01 0.01 0.01 0.02 0.01 0.01 0.01 0.01 0.01 0.02 0.02 0.02 0.01 0.00 0.00 0.00 0.00 0.00 0.00 0.00 0.00 0.00 0.00 0.00 0.00 0.01 0.01 0.01 0.01 0.00
0.13 0.14 0.17 0.16 0.13 0.14 0.11 0.06 0.08 0.09 0.08 0.03 0.01 0.04 0.13 0.08 0.03 0.02 0.01 0.02 0.02 0.02 0.02 0.01 0.01 0.00 0.00 0.00 0.01 0.01 0.00 0.00 0.00 0.00 0.00 0.00 0.00 0.00 0.00 0.00 0.00 0.00 0.00 0.00 0.01 0.01 0.01 0.01 0.01
0.11 0.13 0.14 0.16 0.12 0.11 0.07 0.07 0.06 0.04 0.03 0.02 0.01 0.03 0.10 0.04 0.03 0.02 0.02 0.02 0.03 0.03 0.03 0.02 0.01 0.00 0.00 0.00 0.00 0.00 0.00 0.00 0.00 0.00 0.00 0.00 0.00 0.00 0.00 0.00 0.00 0.00 0.00 0.00 0.01 0.01 0.01 0.01 0.01
0.09 0.11 0.15 0.16 0.10 0.08 0.08 0.08 0.06 0.05 0.05 0.03 0.03 0.04 0.05 0.03 0.01 0.01 0.02 0.02 0.02 0.02 0.02 0.01 0.01 0.01 0.00 0.00 0.00 0.00 0.00 0.00 0.00 0.00 0.00 0.00 0.00 0.00 0.00 0.00 0.00 0.00 0.00 0.00 0.00 0.01 0.01 0.00 0.01
0.07 0.11 0.15 0.15 0.08 0.07 0.07 0.09 0.04 0.04 0.03 0.03 0.05 0.05 0.03 0.02 0.01 0.01 0.01 0.01 0.02 0.02 0.01 0.01 0.01 0.00 0.00 0.00 0.00 0.00 0.00 0.00 0.00 0.00 0.00 0.00 0.00 0.00 0.00 0.00 0.00 0.00 0.00 0.00 0.00 0.00 0.00 0.00 0.00
0.07 0.10 0.12 0.12 0.07 0.10 0.08 0.06 0.04 0.03 0.02 0.01 0.02 0.04 0.04 0.03 0.02 0.01 0.01 0.02 0.01 0.02 0.01 0.01 0.01 0.00 0.00 0.00 0.00 0.00 0.00 0.00 0.00 0.00 0.00 0.00 0.00 0.00 0.00 0.00 0.00 0.00 0.00 0.00 0.00 0.00 0.00 0.00 0.00
0.09 0.09 0.08 0.06 0.05 0.07 0.06 0.06 0.04 0.03 0.02 0.01 0.02 0.03 0.04 0.03 0.02 0.01 0.01 0.01 0.01 0.01 0.02 0.01 0.01 0.01 0.00 0.00 0.00 0.00 0.00 0.00 0.00 0.00 0.00 0.00 0.00 0.00 0.00 0.00 0.00 0.00 0.00 0.00 0.00 0.00 0.00 0.00 0.00
0.08 0.06 0.06 0.05 0.05 0.05 0.04 0.03 0.03 0.02 0.02 0.02 0.02 0.03 0.03 0.02 0.02 0.02 0.01 0.01 0.01 0.01 0.01 0.02 0.02 0.02 0.01 0.01 0.00 0.00 0.00 0.00 0.00 0.00 0.00 0.00 0.00 0.00 0.00 0.00 0.00 0.00 0.00 0.00 0.00 0.00 0.00 0.00 0.00
0.06 0.06 0.07 0.05 0.06 0.04 0.04 0.05 0.04 0.02 0.02 0.02 0.04 0.04 0.02 0.02 0.01 0.01 0.01 0.00 0.00 0.01 0.02 0.01 0.02 0.02 0.03 0.02 0.01 0.00 0.00 0.00 0.00 0.00 0.00 0.00 0.00 0.00 0.00 0.00 0.00 0.00 0.00 0.00 0.00 0.00 0.00 0.00 0.00
0.08 0.09 0.09 0.06 0.05 0.04 0.04 0.06 0.05 0.04 0.02 0.01 0.02 0.02 0.01 0.01 0.01 0.01 0.00 0.00 0.00 0.00 0.01 0.01 0.01 0.01 0.02 0.03 0.02 0.01 0.00 0.00 0.00 0.00 0.00 0.00 0.00 0.00 0.00 0.00 0.00 0.00 0.00 0.00 0.00 0.00 0.00 0.00 0.00
0.10 0.09 0.08 0.06 0.05 0.04 0.03 0.04 0.04 0.03 0.04 0.02 0.02 0.01 0.01 0.01 0.01 0.01 0.01 0.00 0.00 0.00 0.00 0.01 0.01 0.01 0.01 0.02 0.03 0.02 0.00 0.00 0.00 0.00 0.00 0.00 0.00 0.00 0.00 0.00 0.00 0.00 0.00 0.00 0.00 0.00 0.00 0.00 0.01
0.06 0.06 0.05 0.06 0.05 0.04 0.03 0.02 0.02 0.02 0.03 0.02 0.02 0.01 0.01 0.01 0.01 0.01 0.01 0.01 0.01 0.00 0.00 0.00 0.01 0.01 0.02 0.01 0.01 0.01 0.00 0.00 0.00 0.00 0.00 0.00 0.00 0.00 0.00 0.00 0.00 0.00 0.00 0.00 0.00 0.00 0.00 0.00 0.01
0.04 0.07 0.07 0.07 0.06 0.05 0.05 0.04 0.03 0.02 0.04 0.04 0.02 0.01 0.00 0.00 0.00 0.01 0.01 0.01 0.01 0.00 0.00 0.00 0.01 0.01 0.01 0.02 0.02 0.01 0.01 0.00 0.00 0.00 0.00 0.00 0.00 0.00 0.00 0.00 0.00 0.00 0.00 0.00 0.00 0.00 0.00 0.00 0.00
0.06 0.10 0.11 0.09 0.07 0.06 0.07 0.05 0.04 0.02 0.05 0.05 0.03 0.02 0.01 0.01 0.00 0.01 0.01 0.01 0.01 0.00 0.00 0.00 0.01 0.01 0.01 0.01 0.02 0.02 0.01 0.01 0.00 0.00 0.00 0.00 0.00 0.00 0.00 0.00 0.00 0.00 0.00 0.01 0.01 0.00 0.00 0.00 0.00
0.08 0.08 0.08 0.10 0.08 0.06 0.06 0.06 0.04 0.03 0.03 0.03 0.03 0.02 0.01 0.01 0.00 0.00 0.01 0.01 0.00 0.00 0.00 0.00 0.00 0.01 0.01 0.01 0.02 0.02 0.01 0.01 0.00 0.00 0.00 0.00 0.00 0.00 0.00 0.00 0.00 0.00 0.00 0.01 0.01 0.01 0.00 0.00 0.00
0.07 0.05 0.04 0.05 0.06 0.05 0.04 0.04 0.02 0.01 0.01 0.02 0.02 0.01 0.01 0.01 0.00 0.00 0.01 0.01 0.01 0.01 0.01 0.00 0.00 0.00 0.01 0.01 0.01 0.01 0.01 0.01 0.00 0.00 0.00 0.00 0.00 0.00 0.00 0.00 0.00 0.00 0.00 0.00 0.01 0.01 0.00 0.00 0.00
0.06 0.05 0.04 0.04 0.06 0.05 0.04 0.03 0.02 0.01 0.01 0.01 0.00 0.01 0.01 0.01 0.01 0.01 0.01 0.02 0.02 0.02 0.01 0.00 0.00 0.00 0.01 0.01 0.01 0.01 0.01 0.01 0.01 0.00 0.00 0.00 0.00 0.00 0.00 0.00 0.00 0.00 0.00 0.00 0.00 0.00 0.00 0.01 0.00
0.04 0.05 0.05 0.05 0.06 0.06 0.04 0.03 0.02 0.01 0.00 0.00 0.00 0.00 0.01 0.00 0.00 0.01 0.01 0.01 0.01 0.01 0.01 0.00 0.01 0.01 0.01 0.01 0.02 0.02 0.02 0.01 0.01 0.00 0.00 0.00 0.00 0.00 0.00 0.00 0.00 0.00 0.00 0.00 0.00 0.00 0.00 0.01 0.01
0.03 0.04 0.06 0.06 0.06 0.05 0.02 0.01 0.01 0.00 0.01 0.00 0.00 0.00 0.00 0.00 0.00 0.00 0.00 0.00 0.00 0.00 0.01 0.01 0.00 0.01 0.01 0.01 0.02 0.02 0.02 0.01 0.01 0.00 0.00 0.00 0.00 0.00 0.00 0.00 0.00 0.00 0.00 0.00 0.00 0.00 0.00 0.00 0.00
0.03 0.03 0.06 0.07 0.04 0.02 0.01 0.02 0.01 0.01 0.00 0.00 0.00 0.00 0.00 0.00 0.00 0.00 0.00 0.00 0.00 0.00 0.00 0.01 0.01 0.00 0.01 0.01 0.02 0.02 0.02 0.02 0.01 0.00 0.00 0.00 0.00 0.00 0.00 0.00 0.00 0.00 0.00 0.00 0.00 0.00 0.00 0.00 0.00
0.02 0.03 0.03 0.04 0.02 0.02 0.01 0.02 0.00 0.00 0.00 0.00 0.00 0.00 0.00 0.00 0.00 0.00 0.00 0.00 0.00 0.00 0.00 0.00 0.00 0.00 0.00 0.02 0.03 0.02 0.02 0.02 0.01 0.00 0.00 0.00 0.00 0.00 0.00 0.00 0.00 0.00 0.00 0.00 0.00 0.00 0.00 0.00 0.00
0.02 0.01 0.02 0.03 0.02 0.01 0.01 0.00 0.00 0.00 0.00 0.00 0.00 0.00 0.00 0.00 0.00 0.00 0.00 0.00 0.00 0.00 0.00 0.00 0.00 0.00 0.00 0.01 0.03 0.02 0.01 0.01 0.01 0.01 0.00 0.00 0.00 0.00 0.00 0.00 0.00 0.00 0.00 0.00 0.00 0.00 0.00 0.00 0.00
0.01 0.01 0.02 0.02 0.02 0.01 0.01 0.00 0.00 0.00 0.00 0.00 0.00 0.00 0.00 0.00 0.00 0.00 0.00 0.00 0.00 0.01 0.01 0.01 0.00 0.00 0.00 0.01 0.01 0.02 0.02 0.01 0.01 0.01 0.00 0.00 0.00 0.00 0.00 0.00 0.00 0.00 0.00 0.00 0.00 0.00 0.00 0.00 0.00
0.01 0.02 0.02 0.01 0.01 0.01 0.00 0.00 0.00 0.00 0.00 0.00 0.00 0.00 0.00 0.00 0.00 0.00 0.00 0.00 0.00 0.01 0.01 0.01 0.01 0.00 0.01 0.01 0.01 0.01 0.02 0.01 0.01 0.00 0.00 0.00 0.00 0.00 0.00 0.00 0.00 0.00 0.00 0.00 0.00 0.00 0.00 0.00 0.00
MSLP
1010.96 1011.62 1012.51 1013.51 1014.44 1015.17 1015.59 1015.65 1015.41 1014.97 1014.49 1014.10 1013.92 1013.97 1014.21 1014.56 1014.89 1015.06 1015.02 1014.75 1014.31 1013.79 1013.31 1012.95 1012.79 1012.80 1012.94 1013.12 1013.26 1013.32 1013.28 1013.16 1013.02 1012.91 1012.87 1012.93 1013.06 1013.22 1013.36 1013.43 1013.42 1013.34 1013.19 1013.03 1012.88 1012.77 1012.70 1012.65 1012.61
1011.24 1012.08 1013.08 1014.08 1014.93 1015.49 1015.70 1015.54 1015.10 1014.52 1013.95 1013.54 1013.37 1013.46 1013.75 1014.14 1014.49 1014.69 1014.68 1014.46 1014.09 1013.66 1013.28 1013.03 1012.95 1013.02 1013.19 1013.37 1013.51 1013.56 1013.51 1013.40 1013.28 1013.20 1013.19 1013.25 1013.36 1013.48 1013.56 1013.57 1013.49 1013.34 1013.17 1012.99 1012.85 1012.75 1012.70 1012.67 1012.63
1011.62 1012.60 1013.65 1014.61 1015.33 1015.70 1015.68 1015.32 1014.72 1014.04 1013.44 1013.05 1012.93 1013.07 1013.41 1013.82 1014.18 1014.38 1014.38 1014.20 1013.90 1013.56 1013.29 1013.15 1013.15 1013.28 1013.47 1013.66 1013.78 1013.81 1013.75 1013.64 1013.54 1013.48 1013.49 1013.55 1013.64 1013.71 1013.72 1013.65 1013.50 1013.30 1013.09 1012.90 1012.76 1012.69 1012.66 1012.65 1012.64
1012.13 1013.19 1014.24 1015.10 1015.65 1015.81 1015.59 1015.06 1014.36 1013.64 1013.06 1012.73 1012.69 1012.90 1013.28 1013.70 1014.04 1014.22 1014.21 1014.04 1013.79 1013.53 1013.36 1013.32 1013.41 1013.59 1013.80 1013.97 1014.06 1014.05 1013.97 1013.86 1013.76 1013.72 1013.74 1013.80 1013.87 1013.90 1013.85 1013.71 1013.50 1013.25 1013.01 1012.81 1012.69 1012.63 1012.63 1012.65 1012.66
1012.73 1013.82 1014.79 1015.52 1015.88 1015.85 1015.45 1014.81 1014.05 1013.36 1012.87 1012.65 1012.71 1013.00 1013.41 1013.82 1014.12 1014.25 1014.20 1014.03 1013.80 1013.61 1013.52 1013.56 1013.71 1013.93 1014.13 1014.27 1014.32 1014.26 1014.15 1014.02 1013.93 1013.89 1013.92 1013.99 1014.05 1014.04 1013.95 1013.77 1013.51 1013.22 1012.96 1012.77 1012.65 1012.62 1012.64 1012.68 1012.70
1013.38 1014.42 1015.28 1015.83 1016.00 1015.79 1015.27 1014.56 1013.83 1013.23 1012.87 1012.80 1012.98 1013.35 1013.78 1014.16 1014.40 1014.46 1014.36 1014.16 1013.94 1013.79 1013.76 1013.85 1014.05 1014.27 1014.45 1014.55 1014.53 1014.43 1014.27 1014.12 1014.02 1014.00 1014.04 1014.12 1014.17 1014.16 1014.05 1013.83 1013.55 1013.25 1012.98 1012.78 1012.67 1012.65 1012.68 1012.72 1012.75
1013.99 1014.92 1015.62 1015.99 1015.97 1015.62 1015.02 1014.32 1013.66 1013.20 1013.01 1013.09 1013.41 1013.85 1014.30 1014.65 1014.82 1014.80 1014.63 1014.39 1014.17 1014.04 1014.04 1014.17 1014.37 1014.58 1014.72 1014.76 1014.69 1014.52 1014.32 1014.15 1014.05 1014.04 1014.10 1014.20 1014.26 1014.25 1014.13 1013.91 1013.62 1013.31 1013.04 1012.85 1012.74 1012.72 1012.74 1012.77 1012.78
1014.46 1015.26 1015.78 1015.96 1015.78 1015.32 1014.69 1014.03 1013.50 1013.20 1013.18 1013.43 1013.86 1014.37 1014.82 1015.13 1015.24 1015.15 1014.92 1014.65 1014.42 1014.30 1014.32 1014.45 1014.65 1014.83 1014.92 1014.91 1014.77 1014.56 1014.33 1014.15 1014.05 1014.06 1014.14 1014.25 1014.32 1014.32 1014.20 1013.98 1013.70 1013.40 1013.13 1012.94 1012.84 1012.80 1012.80 1012.80 1012.77
1014.75 1015.38 1015.73 1015.73 1015.43 1014.91 1014.28 1013.70 1013.30 1013.17 1013.31 1013.70 1014.23 1014.77 1015.23 1015.49 1015.55 1015.41 1015.15 1014.86 1014.63 1014.52 1014.55 1014.68 1014.86 1015.00 1015.05 1014.99 1014.81 1014.57 1014.33 1014.14 1014.06 1014.08 1014.17 1014.30 1014.38 1014.38 1014.27 1014.06 1013.78 1013.49 1013.24 1013.04 1012.93 1012.87 1012.83 1012.79 1012.72
1014.82 1015.30 1015.48 1015.35 1014.96 1014.40 1013.82 1013.34 1013.06 1013.07 1013.35 1013.83 1014.41 1014.97 1015.41 1015.64 1015.66 1015.50 1015.24 1014.96 1014.75 1014.67 1014.70 1014.83 1014.99 1015.10 1015.11 1015.01 1014.82 1014.57 1014.33 1014.16 1014.10 1014.14 1014.24 1014.37 1014.45 1014.45 1014.34 1014.13 1013.86 1013.58 1013.34 1013.15 1013.02 1012.93 1012.86 1012.77 1012.64
1014.72 1015.06 1015.11 1014.88 1014.44 1013.89 1013.37 1012.98 1012.82 1012.93 1013.28 1013.80 1014.39 1014.93 1015.34 1015.55 1015.55 1015.40 1015.17 1014.93 1014.77 1014.72 1014.78 1014.90 1015.04 1015.13 1015.12 1015.01 1014.82 1014.59 1014.38 1014.24 1014.20 1014.26 1014.37 1014.48 1014.55 1014.54 1014.42 1014.21 1013.95 1013.69 1013.44 1013.25 1013.11 1013.00 1012.89 1012.75 1012.58
1014.55 1014.77 1014.71 1014.42 1013.97 1013.46 1013.00 1012.70 1012.62 1012.78 1013.15 1013.66 1014.21 1014.70 1015.05 1015.24 1015.25 1015.13 1014.96 1014.80 1014.70 1014.70 1014.78 1014.92 1015.05 1015.12 1015.11 1015.01 1014.84 1014.65 1014.48 1014.39 1014.38 1014.45 1014.55 1014.65 1014.70 1014.66 1014.53 1014.32 1014.07 1013.81 1013.59 1013.40 1013.25 1013.11 1012.96 1012.78 1012.56
1014.41 1014.53 1014.40 1014.08 1013.65 1013.20 1012.82 1012.59 1012.55 1012.72 1013.06 1013.49 1013.95 1014.35 1014.65 1014.80 1014.83 1014.77 1014.67 1014.59 1014.58 1014.63 1014.75 1014.89 1015.02 1015.09 1015.09 1015.01 1014.88 1014.75 1014.64 1014.60 1014.62 1014.69 1014.78 1014.86 1014.87 1014.81 1014.67 1014.46 1014.22 1013.99 1013.78 1013.60 1013.44 1013.28 1013.11 1012.88 1012.61
1014.42 1014.45 1014.28 1013.96 1013.58 1013.20 1012.89 1012.72 1012.70 1012.83 1013.09 1013.41 1013.74 1014.03 1014.24 1014.36 1014.40 1014.39 1014.38 1014.38 1014.44 1014.55 1014.69 1014.84 1014.97 1015.04 1015.06 1015.02 1014.95 1014.88 1014.84 1014.84 1014.89 1014.96 1015.04 1015.08 1015.06 1014.98 1014.83 1014.64 1014.42 1014.22 1014.03 1013.87 1013.71 1013.54 1013.34 1013.08 1012.77
1014.62 1014.58 1014.38 1014.09 1013.77 1013.47 1013.24 1013.11 1013.09 1013.16 1013.30 1013.48 1013.66 1013.82 1013.94 1014.01 1014.06 1014.10 1014.15 1014.22 1014.33 1014.48 1014.63 1014.78 1014.90 1014.98 1015.02 1015.03 1015.02 1015.02 1015.04 1015.09 1015.16 1015.23 1015.28 1015.29 1015.25 1015.15 1015.00 1014.83 1014.65 1014.49 1014.34 1014.20 1014.05 1013.87 1013.65 1013.36 1013.02
1015.02 1014.92 1014.71 1014.47 1014.22 1014.01 1013.86 1013.76 1013.72 1013.72 1013.74 1013.76 1013.79 1013.81 1013.83 1013.85 1013.88 1013.94 1014.03 1014.15 1014.29 1014.44 1014.58 1014.72 1014.83 1014.91 1014.97 1015.03 1015.08 1015.15 1015.22 1015.31 1015.39 1015.45 1015.48 1015.46 1015.39 1015.28 1015.15 1015.01 1014.89 1014.77 1014.67 1014.56 1014.42 1014.24 1014.00 1013.69 1013.34
1015.57 1015.42 1015.23 1015.04 1014.88 1014.77 1014.69 1014.62 1014.56 1014.48 1014.38 1014.26 1014.13 1014.02 1013.93 1013.89 1013.90 1013.96 1014.06 1014.18 1014.31 1014.44 1014.55 1014.65 1014.74 1014.82 1014.91 1015.01 1015.12 1015.25 1015.38 1015.49 1015.58 1015.62 1015.62 1015.57 1015.48 1015.37 1015.26 1015.16 1015.09 1015.03 1014.97 1014.89 1014.78 1014.60 1014.35 1014.04 1013.67
1016.17 1016.01 1015.85 1015.74 1015.68 1015.67 1015.66 1015.63 1015.54 1015.39 1015.17 1014.92 1014.66 1014.43 1014.25 1014.15 1014.12 1014.15 1014.23 1014.32 1014.42 1014.49 1014.56 1014.61 1014.67 1014.74 1014.85 1014.98 1015.15 1015.33 1015.50 1015.64 1015.72 1015.74 1015.70 1015.62 1015.51 1015.40 1015.30 1015.25 1015.22 1015.21 1015.20 1015.16 1015.07 1014.90 1014.65 1014.34 1013.99
1016.74 1016.60 1016.52 1016.51 1016.56 1016.64 1016.70 1016.70 1016.59 1016.37 1016.06 1015.69 1015.32 1014.99 1014.73 1014.57 1014.50 1014.50 1014.53 1014.58 1014.61 1014.62 1014.61 1014.60 1014.62 1014.68 1014.80 1014.98 1015.19 1015.41 1015.61 1015.76 1015.83 1015.82 1015.74 1015.62 1015.49 1015.37 1015.29 1015.26 1015.28 1015.31 1015.34 1015.33 1015.25 1015.10 1014.87 1014.58 1014.25
1017.20 1017.14 1017.17 1017.28 1017.45 1017.63 1017.76 1017.77 1017.63 1017.35 1016.96 1016.50 1016.04 1015.64 1015.32 1015.12 1015.01 1014.97 1014.96 1014.95 1014.90 1014.83 1014.74 1014.67 1014.64 1014.69 1014.81 1015.01 1015.26 1015.51 1015.74 1015.89 1015.94 1015.90 1015.78 1015.62 1015.46 1015.32 1015.24 1015.23 1015.26 1015.33 1015.38 1015.38 1015.32 1015.18 1014.97 1014.71 1014.43
1017.52 1017.59 1017.77 1018.03 1018.33 1018.60 1018.78 1018.79 1018.63 1018.29 1017.81 1017.28 1016.76 1016.31 1015.96 1015.73 1015.61 1015.54 1015.49 1015.42 1015.30 1015.15 1014.99 1014.84 1014.77 1014.78 1014.91 1015.12 1015.39 1015.67 1015.90 1016.05 1016.09 1016.02 1015.86 1015.65 1015.45 1015.29 1015.19 1015.17 1015.21 1015.27 1015.33 1015.34 1015.29 1015.16 1014.97 1014.75 1014.51
1017.72 1017.96 1018.32 1018.74 1019.17 1019.53 1019.73 1019.74 1019.52 1019.12 1018.58 1017.98 1017.42 1016.94 1016.59 1016.37 1016.24 1016.17 1016.09 1015.98 1015.81 1015.59 1015.35 1015.15 1015.02 1015.00 1015.11 1015.32 1015.60 1015.89 1016.13 1016.27 1016.29 1016.19 1016.00 1015.75 1015.51 1015.31 1015.18 1015.13 1015.15 1015.19 1015.23 1015.23 1015.17 1015.05 1014.88 1014.68 1014.50
1017.81 1018.26 1018.81 1019.40 1019.95 1020.37 1020.58 1020.55 1020.28 1019.81 1019.20 1018.56 1017.98 1017.50 1017.16 1016.97 1016.87 1016.81 1016.74 1016.61 1016.40 1016.13 1015.84 1015.58 1015.40 1015.34 1015.42 1015.62 1015.89 1016.17 1016.41 1016.54 1016.55 1016.43 1016.21 1015.94 1015.66 1015.42 1015.25 1015.16 1015.13 1015.13 1015.13 1015.10 1015.02 1014.89 1014.73 1014.56 1014.41
1017.84 1018.51 1019.25 1019.99 1020.63 1021.09 1021.29 1021.21 1020.87 1020.32 1019.66 1018.99 1018.39 1017.93 1017.64 1017.49 1017.44 1017.43 1017.38 1017.26 1017.04 1016.74 1016.41 1016.10 1015.88 1015.78 1015.82 1015.99 1016.23 1016.50 1016.73 1016.86 1016.86 1016.73 1016.50 1016.21 1015.91 1015.64 1015.42 1015.28 1015.19 1015.14 1015.08 1015.00 1014.88 1014.73 1014.56 1014.40 1014.27
1017.83 1018.69 1019.60 1020.46 1021.16 1021.63 1021.80 1021.66 1021.25 1020.63 1019.92 1019.23 1018.64 1018.22 1017.98 1017.90 1017.92 1017.96 1017.97 1017.88 1017.67 1017.37 1017.03 1016.69 1016.43 1016.28 1016.28 1016.40 1016.62 1016.86 1017.07 1017.19 1017.20 1017.08 1016.86 1016.57 1016.25 1015.96 1015.71 1015.51 1015.36 1015.24 1015.11 1014.97 1014.80 1014.61 1014.42 1014.24 1014.10
1017.78 1018.80 1019.82 1020.75 1021.48 1021.92 1022.04 1021.84 1021.36 1020.70 1019.96 1019.27 1018.71 1018.34 1018.17 1018.16 1018.25 1018.37 1018.44 1018.40 1018.23 1017.96 1017.61 1017.27 1016.98 1016.80 1016.76 1016.84 1017.01 1017.22 1017.41 1017.53 1017.54 1017.45 1017.25 1016.97 1016.67 1016.36 1016.08 1015.84 1015.63 1015.44 1015.24 1015.03 1014.81 1014.57 1014.33 1014.12 1013.96
1017.67 1018.78 1019.86 1020.80 1021.51 1021.91 1021.97 1021.71 1021.19 1020.49 1019.76 1019.10 1018.58 1018.28 1018.18 1018.25 1018.42 1018.62 1018.75 1018.78 1018.67 1018.43 1018.12 1017.79 1017.50 1017.30 1017.22 1017.26 1017.39 1017.57 1017.74 1017.86 1017.89 1017.81 1017.65 1017.40 1017.12 1016.82 1016.53 1016.25 1015.99 1015.73 1015.47 1015.19 1014.90 1014.61 1014.33 1014.08 1013.87
1017.49 1018.61 1019.67 1020.57 1021.22 1021.55 1021.55 1021.24 1020.70 1020.02 1019.32 1018.71 1018.27 1018.04 1018.02 1018.16 1018.41 1018.67 1018.88 1018.97 1018.93 1018.76 1018.51 1018.21 1017.94 1017.75 1017.65 1017.66 1017.76 1017.91 1018.06 1018.17 1018.21 1018.16 1018.03 1017.83 1017.58 1017.29 1017.00 1016.70 1016.40 1016.09 1015.77 1015.44 1015.09 1014.75 1014.43 1014.13 1013.88
1017.20 1018.25 1019.23 1020.03 1020.57 1020.82 1020.76 1020.43 1019.90 1019.27 1018.65 1018.13 1017.79 1017.64 1017.70 1017.92 1018.22 1018.55 1018.81 1018.98 1019.01 1018.92 1018.74 1018.51 1018.29 1018.13 1018.04 1018.04 1018.11 1018.23 1018.35 1018.45 1018.50 1018.48 1018.38 1018.22 1018.00 1017.74 1017.46 1017.15 1016.82 1016.48 1016.12 1015.74 1015.36 1014.98 1014.62 1014.29 1014.00
1016.81 1017.73 1018.55 1019.20 1019.61 1019.75 1019.64 1019.31 1018.83 1018.29 1017.79 1017.39 1017.16 1017.12 1017.26 1017.53 1017.89 1018.26 1018.58 1018.81 1018.92 1018.91 1018.83 1018.69 1018.54 1018.43 1018.37 1018.37 1018.43 1018.53 1018.63 1018.72 1018.76 1018.75 1018.68 1018.55 1018.36 1018.13 1017.86 1017.55 1017.22 1016.85 1016.47 1016.07 1015.66 1015.26 1014.88 1014.53 1014.21
Thickness
5789 5789 5787 5775 5755 5739 5736 5745 5755 5760 5766 5776 5781 5778 5770 5763 5758 5749 5768 5777 5776 5775 5773 5772 5771 5771 5770 5769 5768 5766 5766 5764 5763 5762 5761 5760 5758 5757 5756 5755 5754 5753 5752 5751 5750 5750 5750 5750 5750
5788 5787 5778 5762 5740 5725 5733 5749 5755 5764 5773 5779 5780 5777 5770 5764 5770 5767 5770 5774 5775 5773 5772 5771 5770 5769 5768 5767 5766 5764 5763 5762 5761 5759 5758 5757 5756 5755 5754 5753 5752 5751 5750 5749 5748 5747 5747 5747 5747
5786 5783 5765 5750 5737 5730 5738 5753 5760 5771 5779 5779 5773 5773 5768 5764 5770 5769 5772 5774 5773 5771 5770 5769 5768 5767 5766 5764 5763 5762 5761 5759 5758 5757 5756 5754 5753 5752 5751 5750 5749 5748 5747 5746 5745 5744 5744 5744 5744
5777 5767 5757 5742 5736 5745 5751 5759 5767 5769 5774 5777 5772 5763 5767 5775 5775 5773 5774 5774 5771 5769 5768 5767 5766 5765 5763 5762 5761 5760 5758 5757 5756 5754 5753 5752 5751 5749 5748 5747 5746 5745 5744 5744 5743 5742 5742 5742 5742
5771 5755 5741 5732 5738 5751 5760 5767 5770 5767 5768 5770 5769 5756 5757 5771 5777 5775 5773 5772 5769 5767 5766 5765 5764 5763 5762 5760 5759 5758 5756 5755 5753 5752 5750 5749 5748 5747 5746 5745 5744 5743 5742 5741 5740 5740 5739 5739 5739
5754 5747 5729 5724 5736 5751 5760 5769 5770 5765 5765 5767 5765 5755 5754 5768 5771 5771 5772 5770 5769 5766 5765 5763 5762 5761 5760 5758 5757 5755 5754 5752 5751 5750 5748 5747 5746 5744 5743 5742 5741 5740 5739 5738 5738 5737 5737 5737 5737
5745 5736 5728 5731 5735 5744 5758 5770 5767 5763 5762 5766 5768 5752 5753 5763 5769 5772 5771 5769 5767 5765 5764 5762 5760 5759 5758 5757 5755 5753 5752 5750 5749 5747 5746 5745 5744 5742 5741 5740 5739 5738 5737 5736 5735 5735 5735 5735 5735
5750 5736 5729 5730 5734 5740 5760 5769 5770 5767 5764 5773 5771 5753 5749 5761 5769 5770 5768 5765 5764 5763 5762 5760 5758 5757 5756 5755 5753 5752 5750 5749 5747 5746 5744 5743 5742 5741 5739 5738 5737 5736 5735 5734 5734 5733 5733 5733 5733
5751 5727 5720 5730 5735 5743 5761 5762 5767 5773 5769 5769 5770 5765 5765 5768 5768 5764 5760 5758 5758 5758 5758 5758 5756 5755 5753 5752 5751 5750 5748 5746 5745 5743 5742 5741 5740 5738 5737 5737 5735 5734 5733 5732 5732 5731 5731 5731 5731
5738 5719 5727 5741 5746 5750 5757 5759 5762 5760 5756 5757 5759 5764 5767 5765 5761 5757 5754 5753 5753 5754 5755 5756 5755 5753 5751 5750 5749 5747 5746 5744 5743 5741 5740 5739 5737 5736 5735 5734 5733 5732 5731 5730 5729 5729 5729 5728 5728
5737 5727 5738 5747 5755 5757 5755 5758 5763 5754 5746 5752 5754 5756 5759 5758 5756 5754 5753 5754 5754 5755 5755 5754 5754 5752 5750 5749 5747 5745 5743 5742 5741 5740 5738 5737 5736 5734 5733 5732 5730 5729 5728 5727 5726 5726 5726 5725 5725
5736 5740 5746 5751 5758 5758 5755 5756 5756 5754 5754 5762 5762 5761 5758 5754 5753 5752 5752 5752 5754 5754 5754 5754 5753 5751 5749 5748 5746 5744 5742 5740 5739 5737 5736 5734 5733 5731 5729 5728 5727 5725 5724 5723 5723 5722 5722 5722 5722
5734 5739 5748 5754 5756 5758 5757 5753 5752 5752 5760 5763 5762 5759 5755 5753 5753 5754 5755 5754 5753 5751 5751 5751 5751 5749 5747 5746 5744 5742 5740 5738 5736 5735 5734 5732 5730 5728 5726 5725 5724 5722 5721 5720 5719 5719 5719 5719 5719
5737 5742 5745 5750 5752 5754 5750 5748 5748 5748 5758 5758 5756 5754 5754 5753 5753 5752 5751 5750 5750 5750 5749 5749 5748 5747 5746 5744 5742 5740 5738 5736 5734 5733 5732 5730 5728 5726 5724 5722 5721 5719 5718 5717 5716 5716 5715 5715 5715
5741 5734 5736 5742 5747 5748 5746 5732 5737 5747 5753 5750 5750 5751 5751 5752 5753 5752 5751 5751 5751 5750 5749 5748 5747 5746 5744 5742 5740 5738 5736 5734 5733 5731 5730 5728 5726 5724 5722 5719 5718 5717 5716 5715 5714 5713 5712 5712 5712
5730 5720 5716 5733 5743 5744 5735 5714 5733 5745 5746 5742 5743 5745 5746 5749 5751 5752 5752 5751 5751 5749 5748 5747 5747 5743 5741 5740 5738 5736 5734 5733 5731 5729 5728 5726 5725 5723 5720 5718 5716 5715 5713 5712 5711 5709 5708 5707 5707
5711 5704 5710 5724 5738 5738 5728 5716 5731 5741 5741 5737 5738 5739 5741 5743 5746 5749 5751 5750 5749 5748 5747 5744 5743 5741 5739 5738 5736 5734 5732 5731 5729 5727 5726 5724 5723 5721 5719 5716 5714 5712 5711 5709 5708 5706 5704 5703 5703
5701 5705 5710 5714 5727 5729 5719 5717 5727 5735 5736 5732 5733 5734 5737 5739 5742 5747 5749 5749 5748 5747 5746 5743 5741 5740 5738 5736 5733 5731 5729 5728 5727 5726 5724 5723 5722 5720 5718 5715 5712 5710 5708 5706 5705 5703 5702 5701 5700
5716 5711 5709 5714 5727 5722 5714 5714 5720 5727 5728 5727 5728 5730 5732 5736 5742 5744 5745 5745 5744 5743 5742 5740 5739 5737 5736 5732 5729 5727 5725 5724 5724 5724 5723 5722 5720 5718 5716 5713 5711 5708 5706 5703 5702 5701 5699 5698 5698
5716 5708 5705 5711 5723 5718 5709 5709 5716 5721 5723 5725 5725 5726 5728 5732 5735 5737 5738 5739 5739 5738 5738 5738 5736 5735 5734 5732 5729 5727 5725 5723 5722 5721 5721 5720 5718 5717 5715 5712 5709 5707 5704 5702 5700 5698 5695 5694 5694
5711 5708 5706 5706 5713 5713 5707 5698 5705 5714 5721 5724 5726 5726 5728 5730 5729 5731 5732 5733 5734 5735 5735 5736 5734 5733 5732 5731 5728 5726 5723 5720 5718 5718 5717 5717 5717 5715 5713 5711 5708 5706 5703 5700 5698 5697 5694 5690 5690
5705 5720 5718 5712 5699 5690 5699 5678 5695 5705 5710 5716 5719 5721 5723 5727 5728 5728 5729 5729 5730 5732 5733 5733 5732 5731 5730 5729 5726 5723 5718 5714 5715 5715 5715 5715 5715 5713 5711 5710 5708 5705 5703 5700 5698 5696 5693 5690 5686
5714 5723 5718 5710 5698 5689 5692 5680 5686 5701 5701 5707 5714 5718 5721 5723 5724 5724 5725 5726 5727 5729 5729 5729 5728 5727 5727 5726 5723 5720 5717 5715 5714 5713 5713 5713 5712 5711 5710 5708 5706 5704 5702 5700 5697 5695 5692 5689 5686
5723 5714 5706 5697 5689 5675 5687 5681 5682 5693 5702 5707 5711 5715 5718 5720 5721 5722 5723 5724 5724 5725 5725 5724 5724 5723 5723 5722 5721 5718 5715 5713 5711 5710 5709 5708 5708 5708 5708 5707 5705 5703 5701 5699 5697 5694 5692 5689 5686
5713 5693 5674 5670 5666 5670 5689 5685 5688 5707 5714 5714 5712 5713 5715 5717 5717 5717 5718 5718 5718 5719 5720 5720 5719 5718 5719 5719 5717 5716 5714 5711 5709 5707 5706 5705 5704 5704 5704 5704 5702 5701 5699 5698 5696 5693 5690 5688 5685
5706 5697 5674 5664 5664 5671 5686 5681 5695 5714 5717 5718 5716 5714 5714 5714 5714 5714 5715 5714 5714 5715 5716 5716 5715 5715 5715 5715 5714 5713 5712 5709 5707 5706 5704 5703 5702 5702 5702 5701 5700 5699 5698 5696 5694 5691 5689 5687 5684
5704 5697 5699 5685 5679 5670 5674 5686 5699 5710 5710 5711 5711 5711 5710 5711 5712 5712 5712 5712 5712 5712 5713 5713 5712 5712 5712 5712 5711 5710 5709 5707 5705 5704 5703 5701 5700 5700 5699 5698 5697 5696 5695 5693 5691 5688 5686 5685 5683
5719 5708 5692 5683 5669 5663 5672 5677 5681 5696 5701 5706 5706 5707 5708 5709 5709 5709 5709 5710 5710 5711 5711 5711 5710 5709 5709 5709 5708 5707 5706 5704 5703 5701 5700 5698 5698 5697 5696 5695 5694 5692 5691 5690 5687 5685 5684 5682 5680
5713 5708 5698 5686 5682 5668 5663 5677 5709 5707 5709 5707 5707 5708 5708 5707 5706 5706 5706 5707 5708 5708 5708 5707 5707 5706 5705 5705 5705 5703 5702 5701 5699 5697 5696 5695 5694 5693 5692 5691 5689 5688 5686 5685 5683 5681 5680 5678 5677
5726 5717 5705 5688 5683 5681 5674 5685 5722 5718 5715 5712 5708 5707 5707 5707 5706 5705 5704 5703 5703 5704 5704 5704 5704 5703 5703 5702 5701 5700 5698 5697 5695 5693 5692 5691 5690 5689 5688 5686 5685 5683 5682 5680 5678 5676 5675 5673 5672